| time (UTC) | temp F | wind direction | speed MPH | gust MPH | rain 1hr in | rain 24hr in | rain mn in | humidity % | barometer mb |
| 20260503231649 | 60 | 228 | 0.0 | 0.0 | 0.03 | 0.04 | 0.27 | 41 | 1011.9 |
| 20260503231150 | 60 | 228 | 0.0 | 0.0 | 0.03 | 0.04 | 0.27 | 41 | 1011.8 |
| 20260503230647 | 61 | 194 | 0.0 | 0.0 | 0.03 | 0.04 | 0.25 | 41 | 1011.7 |
| 20260503230148 | 61 | 309 | 0.0 | 0.0 | 0.03 | 0.04 | 0.24 | 40 | 1011.7 |
| 20260503225930 | 61 | 309 | 0.0 | 0.0 | 0.03 | 0.04 | 0.24 | 40 | 1011.7 |
| 20260503225649 | 61 | 309 | 0.0 | 0.0 | 0.03 | 0.04 | 0.24 | 40 | 1011.7 |
| 20260503225145 | 61 | 298 | 0.0 | 0.0 | 0.03 | 0.04 | 0.23 | 39 | 1011.6 |
| 20260503224646 | 61 | 291 | 1.0 | 4.0 | 0.07 | 0.04 | 0.22 | 39 | 1011.7 |
| 20260503224347 | 61 | 301 | 0.0 | 0.0 | 0.07 | 0.04 | 0.22 | 39 | 1011.7 |
| 20260503224147 | 61 | 301 | 0.0 | 0.0 | 0.07 | 0.04 | 0.22 | 39 | 1011.7 |
| 20260503224057 | 62 | 342 | 0.0 | 1.0 | 0.07 | 0.04 | 0.21 | 38 | 1011.5 |
| 20260503223644 | 61 | 278 | 0.0 | 1.0 | 0.07 | 0.04 | 0.22 | 38 | 1011.6 |
| 20260503223145 | 62 | 295 | 0.0 | 0.0 | 0.07 | 0.04 | 0.22 | 39 | 1011.6 |
| 20260503222646 | 62 | 295 | 1.0 | 0.0 | 0.07 | 0.04 | 0.22 | 39 | 1011.6 |
| 20260503222347 | 62 | 7 | 0.0 | 0.0 | 0.07 | 0.04 | 0.21 | 39 | 1011.5 |
| 20260503222142 | 62 | 7 | 0.0 | 0.0 | 0.07 | 0.04 | 0.21 | 39 | 1011.5 |
| 20260503221643 | 62 | 342 | 0.0 | 0.0 | 0.07 | 0.04 | 0.21 | 39 | 1011.6 |
| 20260503221607 | 62 | 342 | 0.0 | 1.0 | 0.07 | 0.04 | 0.21 | 38 | 1011.5 |
| 20260503221144 | 62 | 342 | 0.0 | 1.0 | 0.07 | 0.04 | 0.21 | 38 | 1011.5 |
| 20260503220932 | 62 | 293 | 0.0 | 0.0 | 0.07 | 0.04 | 0.21 | 38 | 1011.5 |
| 20260503220903 | 63 | 309 | 1.0 | 3.0 | 0.00 | 0.04 | 0.20 | 37 | 1011.4 |
| 20260503220854 | 63 | 343 | 1.0 | 1.0 | 0.00 | 0.04 | 0.19 | 37 | 1011.4 |
| 20260503220641 | 62 | 293 | 0.0 | 0.0 | 0.07 | 0.04 | 0.21 | 38 | 1011.5 |
| 20260503220408 | 62 | 264 | 0.0 | 0.0 | 0.07 | 0.04 | 0.21 | 37 | 1011.5 |
| 20260503220142 | 62 | 264 | 0.0 | 0.0 | 0.07 | 0.04 | 0.21 | 37 | 1011.5 |
| 20260503220106 | 62 | 288 | 0.0 | 0.0 | 0.07 | 0.04 | 0.20 | 37 | 1011.6 |
| 20260503215643 | 62 | 288 | 0.0 | 0.0 | 0.07 | 0.04 | 0.20 | 37 | 1011.6 |
| 20260503215542 | 62 | 10 | 1.0 | 1.0 | 0.07 | 0.04 | 0.20 | 37 | 1011.5 |
| 20260503215139 | 62 | 10 | 1.0 | 1.0 | 0.07 | 0.04 | 0.20 | 37 | 1011.5 |
| 20260503214640 | 63 | 309 | 1.0 | 3.0 | 0.00 | 0.04 | 0.20 | 37 | 1011.4 |
| 20260503214539 | 63 | 343 | 1.0 | 1.0 | 0.00 | 0.04 | 0.19 | 37 | 1011.4 |
| 20260503214141 | 63 | 343 | 1.0 | 1.0 | 0.00 | 0.04 | 0.19 | 37 | 1011.4 |
| 20260503213654 | 64 | 323 | 1.0 | 0.0 | 0.00 | 0.04 | 0.13 | 37 | 1011.4 |
| 20260503213638 | 63 | 37 | 2.0 | 0.0 | 0.00 | 0.04 | 0.18 | 38 | 1011.4 |
| 20260503213601 | 63 | 191 | 2.0 | 2.0 | 0.00 | 0.04 | 0.18 | 37 | 1011.3 |
| 20260503213138 | 63 | 191 | 2.0 | 2.0 | 0.00 | 0.04 | 0.18 | 37 | 1011.3 |
| 20260503212639 | 63 | 312 | 0.0 | 3.0 | 0.00 | 0.04 | 0.16 | 37 | 1011.4 |
| 20260503212136 | 64 | 314 | 1.0 | 1.0 | 0.00 | 0.04 | 0.14 | 37 | 1011.4 |
| 20260503211637 | 64 | 359 | 1.0 | 2.0 | 0.00 | 0.04 | 0.13 | 36 | 1011.3 |
| 20260503211138 | 64 | 323 | 1.0 | 0.0 | 0.00 | 0.04 | 0.13 | 37 | 1011.4 |
| 20260503210717 | 64 | 359 | 1.0 | 3.0 | 0.00 | 0.04 | 0.13 | 37 | 1011.3 |
| 20260503210634 | 64 | 359 | 1.0 | 3.0 | 0.00 | 0.04 | 0.13 | 37 | 1011.3 |
| 20260503210458 | 64 | 229 | 3.0 | 2.0 | 0.00 | 0.04 | 0.13 | 37 | 1011.3 |
| 20260503210135 | 64 | 319 | 0.0 | 0.0 | 0.00 | 0.04 | 0.13 | 37 | 1011.3 |
| 20260503205636 | 64 | 316 | 1.0 | 0.0 | 0.00 | 0.04 | 0.13 | 37 | 1011.4 |
| 20260503205133 | 64 | 308 | 0.0 | 0.0 | 0.00 | 0.04 | 0.13 | 37 | 1011.2 |
| 20260503204634 | 64 | 353 | 1.0 | 2.0 | 0.00 | 0.04 | 0.13 | 37 | 1011.3 |
| 20260503204133 | 64 | 229 | 3.0 | 2.0 | 0.00 | 0.04 | 0.13 | 37 | 1011.3 |
| 20260503203631 | 64 | 262 | 1.0 | 0.0 | 0.00 | 0.04 | 0.13 | 38 | 1011.2 |
| 20260503203149 | 65 | 298 | 3.0 | 0.0 | 0.00 | 0.04 | 0.13 | 38 | 1011.2 |
| 20260503203131 | 64 | 349 | 3.0 | 0.0 | 0.00 | 0.04 | 0.13 | 37 | 1011.2 |
| 20260503202632 | 64 | 263 | 1.0 | 0.0 | 0.00 | 0.04 | 0.13 | 37 | 1011.2 |
| 20260503202442 | 65 | 328 | 1.0 | 1.0 | 0.00 | 0.04 | 0.13 | 38 | 1011.2 |
| 20260503202128 | 65 | 328 | 1.0 | 1.0 | 0.00 | 0.04 | 0.13 | 38 | 1011.2 |
| 20260503201629 | 65 | 263 | 1.0 | 2.0 | 0.00 | 0.04 | 0.13 | 38 | 1011.2 |
| 20260503201130 | 65 | 298 | 3.0 | 0.0 | 0.00 | 0.04 | 0.13 | 38 | 1011.2 |
| 20260503200917 | 65 | 318 | 1.0 | 2.0 | 0.00 | 0.04 | 0.13 | 38 | 1011.2 |
| 20260503200627 | 65 | 318 | 1.0 | 2.0 | 0.00 | 0.04 | 0.13 | 38 | 1011.2 |
| 20260503200206 | 65 | 316 | 2.0 | 0.0 | 0.00 | 0.04 | 0.13 | 38 | 1011.3 |
| 20260503200128 | 65 | 316 | 2.0 | 0.0 | 0.00 | 0.04 | 0.13 | 38 | 1011.3 |
| 20260503200058 | 65 | 236 | 0.0 | 0.0 | 0.07 | 0.04 | 0.13 | 39 | 1011.4 |
| 20260503200053 | 65 | 343 | 2.0 | 0.0 | 0.07 | 0.04 | 0.13 | 39 | 1011.6 |
| 20260503195730 | 65 | 172 | 2.0 | 1.0 | 0.00 | 0.04 | 0.13 | 38 | 1011.4 |
| 20260503195628 | 65 | 311 | 0.0 | 3.0 | 0.00 | 0.04 | 0.13 | 39 | 1011.4 |
| 20260503195125 | 65 | 172 | 2.0 | 1.0 | 0.00 | 0.04 | 0.13 | 38 | 1011.4 |
| 20260503194626 | 65 | 4 | 1.0 | 0.0 | 0.07 | 0.04 | 0.13 | 39 | 1011.4 |
| 20260503194127 | 65 | 236 | 0.0 | 0.0 | 0.07 | 0.04 | 0.13 | 39 | 1011.4 |
| 20260503193623 | 65 | 343 | 2.0 | 0.0 | 0.07 | 0.04 | 0.13 | 39 | 1011.6 |
| 20260503193201 | 65 | 304 | 0.0 | 0.0 | 0.07 | 0.04 | 0.13 | 39 | 1011.5 |
| 20260503193124 | 65 | 304 | 0.0 | 0.0 | 0.07 | 0.04 | 0.13 | 39 | 1011.5 |
| 20260503192858 | 65 | 342 | 2.0 | 0.0 | 0.07 | 0.04 | 0.13 | 40 | 1011.7 |
| 20260503192852 | 65 | 274 | 0.0 | 0.0 | 0.07 | 0.04 | 0.13 | 41 | 1011.7 |
| 20260503192847 | 64 | 333 | 1.0 | 0.0 | 0.07 | 0.04 | 0.13 | 40 | 1011.6 |
| 20260503192625 | 65 | 266 | 2.0 | 2.0 | 0.07 | 0.04 | 0.13 | 39 | 1011.7 |
| 20260503192122 | 65 | 322 | 0.0 | 0.0 | 0.07 | 0.04 | 0.13 | 40 | 1011.6 |
| 20260503191621 | 65 | 329 | 0.0 | 2.0 | 0.07 | 0.04 | 0.13 | 40 | 1011.7 |
| 20260503191122 | 65 | 342 | 2.0 | 0.0 | 0.07 | 0.04 | 0.13 | 40 | 1011.7 |
| 20260503190618 | 65 | 274 | 0.0 | 0.0 | 0.07 | 0.04 | 0.13 | 41 | 1011.7 |
| 20260503190119 | 64 | 333 | 1.0 | 0.0 | 0.07 | 0.04 | 0.13 | 40 | 1011.6 |
| 20260503185700 | 64 | 291 | 1.0 | 3.0 | 0.07 | 0.04 | 0.13 | 41 | 1011.8 |
| 20260503185646 | 64 | 294 | 2.0 | 2.0 | 0.02 | 0.04 | 0.12 | 41 | 1011.8 |
| 20260503185620 | 64 | 291 | 1.0 | 3.0 | 0.07 | 0.04 | 0.13 | 41 | 1011.8 |
| 20260503185117 | 64 | 312 | 2.0 | 0.0 | 0.07 | 0.04 | 0.13 | 42 | 1011.9 |
| 20260503184618 | 64 | 294 | 2.0 | 2.0 | 0.02 | 0.04 | 0.12 | 41 | 1011.8 |
| 20260503184118 | 63 | 349 | 1.0 | 3.0 | 0.02 | 0.04 | 0.11 | 42 | 1011.9 |
| 20260503184049 | 63 | 294 | 1.0 | 3.0 | 0.02 | 0.04 | 0.11 | 42 | 1012.0 |
| 20260503184043 | 63 | 297 | 1.0 | 0.0 | 0.02 | 0.04 | 0.11 | 42 | 1011.9 |
| 20260503183615 | 63 | 294 | 1.0 | 3.0 | 0.02 | 0.04 | 0.11 | 42 | 1012.0 |
| 20260503183116 | 63 | 297 | 1.0 | 0.0 | 0.02 | 0.04 | 0.11 | 42 | 1011.9 |
| 20260503183052 | 63 | 274 | 1.0 | 0.0 | 0.02 | 0.04 | 0.11 | 42 | 1012.0 |
| 20260503183042 | 62 | 311 | 1.0 | 0.0 | 0.02 | 0.04 | 0.10 | 43 | 1012.1 |
| 20260503182617 | 63 | 274 | 1.0 | 0.0 | 0.02 | 0.04 | 0.11 | 42 | 1012.0 |
| 20260503182114 | 62 | 311 | 1.0 | 0.0 | 0.02 | 0.04 | 0.10 | 43 | 1012.1 |
| 20260503182048 | 62 | 323 | 1.0 | 3.0 | 0.02 | 0.04 | 0.09 | 42 | 1012.1 |
| 20260503181615 | 62 | 323 | 1.0 | 3.0 | 0.02 | 0.04 | 0.09 | 42 | 1012.1 |
| 20260503181116 | 62 | 309 | 2.0 | 0.0 | 0.02 | 0.04 | 0.09 | 42 | 1012.0 |
| 20260503181041 | 62 | 321 | 1.0 | 0.0 | 0.02 | 0.04 | 0.08 | 42 | 1012.0 |
| 20260503180612 | 61 | 7 | 2.0 | 1.0 | 0.02 | 0.04 | 0.08 | 42 | 1012.1 |
| 20260503180113 | 62 | 321 | 1.0 | 0.0 | 0.02 | 0.04 | 0.08 | 42 | 1012.0 |
| 20260503175614 | 62 | 359 | 0.0 | 2.0 | 0.02 | 0.04 | 0.07 | 42 | 1012.0 |
| 20260503175111 | 62 | 322 | 2.0 | 0.0 | 0.02 | 0.04 | 0.06 | 41 | 1012.1 |
| 20260503174612 | 63 | 328 | 0.0 | 0.0 | 0.00 | 0.04 | 0.06 | 41 | 1012.1 |
| 20260503174113 | 64 | 124 | 1.0 | 2.0 | 0.00 | 0.04 | 0.05 | 41 | 1012.2 |
| 20260503173610 | 64 | 283 | 1.0 | 0.0 | 0.00 | 0.04 | 0.05 | 42 | 1012.1 |
| 20260503173111 | 63 | 340 | 1.0 | 6.0 | 0.00 | 0.04 | 0.04 | 44 | 1012.1 |
| 20260503172611 | 62 | 333 | 1.0 | 0.0 | 0.00 | 0.04 | 0.04 | 44 | 1012.0 |
| 20260503172108 | 61 | 295 | 0.0 | 0.0 | 0.00 | 0.04 | 0.04 | 45 | 1012.0 |
| 20260503171609 | 61 | 354 | 3.0 | 0.0 | 0.00 | 0.04 | 0.04 | 44 | 1012.1 |
| 20260503171236 | 61 | 315 | 4.0 | 0.0 | 0.00 | 0.04 | 0.04 | 43 | 1012.1 |
| 20260503171110 | 61 | 315 | 4.0 | 0.0 | 0.00 | 0.04 | 0.04 | 43 | 1012.1 |
| 20260503170606 | 61 | 359 | 1.0 | 5.0 | 0.00 | 0.04 | 0.04 | 44 | 1012.0 |
| 20260503170107 | 61 | 322 | 1.0 | 0.0 | 0.00 | 0.04 | 0.04 | 44 | 1011.9 |
| 20260503150643 | 57 | 335 | 0.0 | 2.0 | 0.01 | 0.04 | 0.04 | 51 | 1012.5 |
| 20260503150556 | 57 | 335 | 0.0 | 2.0 | 0.01 | 0.04 | 0.04 | 51 | 1012.5 |
| 20260503131053 | 52 | 1 | 1.0 | 1.0 | 0.00 | 0.04 | 0.03 | 60 | 1012.2 |
| 20260503130550 | 52 | 287 | 0.0 | 0.0 | 0.00 | 0.04 | 0.03 | 61 | 1012.2 |
| 20260503110546 | 49 | 343 | 0.0 | 0.0 | 0.00 | 0.04 | 0.02 | 63 | 1011.3 |
| 20260503110147 | 49 | 329 | 0.0 | 2.0 | 0.00 | 0.04 | 0.02 | 64 | 1011.2 |
| 20260503081533 | 50 | 328 | 0.0 | 1.0 | 0.00 | 0.04 | 0.00 | 62 | 1009.4 |
| 20260503081034 | 50 | 314 | 0.0 | 0.0 | 0.00 | 0.04 | 0.00 | 62 | 1009.4 |
| 20260503080844 | 50 | 332 | 0.0 | 0.0 | 0.00 | 0.04 | 0.00 | 62 | 1009.4 |
| 20260503080532 | 50 | 332 | 0.0 | 0.0 | 0.00 | 0.04 | 0.00 | 62 | 1009.4 |
| 20260503072940 | 52 | 332 | 0.0 | 0.0 | 0.00 | 0.04 | 0.00 | 60 | 1009.4 |
| 20260503072532 | 52 | 332 | 0.0 | 0.0 | 0.00 | 0.04 | 0.00 | 60 | 1009.4 |
| 20260503072406 | 52 | 323 | 0.0 | 0.0 | 0.00 | 0.04 | 0.00 | 60 | 1009.5 |
| 20260503072029 | 52 | 323 | 0.0 | 0.0 | 0.00 | 0.04 | 0.00 | 60 | 1009.5 |
| 20260503071908 | 52 | 323 | 0.0 | 0.0 | 0.00 | 0.04 | 0.00 | 60 | 1009.6 |
| 20260503071530 | 52 | 323 | 0.0 | 0.0 | 0.00 | 0.04 | 0.00 | 60 | 1009.6 |
| 20260503071450 | 52 | 323 | 0.0 | 0.0 | 0.00 | 0.04 | 0.00 | 59 | 1009.6 |
| 20260503071233 | 52 | 323 | 0.0 | 0.0 | 0.00 | 0.04 | 0.00 | 59 | 1009.6 |
| 20260503071031 | 52 | 323 | 0.0 | 0.0 | 0.00 | 0.04 | 0.00 | 59 | 1009.6 |
| 20260503070845 | 52 | 323 | 0.0 | 0.0 | 0.00 | 0.04 | 0.00 | 59 | 1009.6 |
| 20260503070527 | 52 | 323 | 0.0 | 0.0 | 0.00 | 0.04 | 0.00 | 59 | 1009.6 |
| 20260503055121 | 53 | 343 | 0.0 | 0.0 | 0.00 | 0.04 | 0.00 | 59 | 1009.6 |
| 20260503055023 | 53 | 343 | 0.0 | 0.0 | 0.00 | 0.04 | 0.00 | 59 | 1009.6 |
| 20260503054524 | 53 | 322 | 0.0 | 0.0 | 0.00 | 0.04 | 0.00 | 59 | 1009.7 |
| 20260503054025 | 53 | 322 | 0.0 | 0.0 | 0.00 | 0.04 | 0.00 | 60 | 1009.8 |
| 20260503053522 | 53 | 322 | 0.0 | 0.0 | 0.00 | 0.04 | 0.00 | 60 | 1009.9 |
| 20260503053258 | 53 | 322 | 0.0 | 0.0 | 0.00 | 0.04 | 0.00 | 60 | 1009.9 |
| 20260503053023 | 53 | 322 | 0.0 | 0.0 | 0.00 | 0.04 | 0.00 | 60 | 1009.9 |
| 20260503052524 | 53 | 322 | 0.0 | 0.0 | 0.00 | 0.04 | 0.00 | 60 | 1009.8 |
| 20260503052021 | 53 | 322 | 0.0 | 0.0 | 0.00 | 0.04 | 0.00 | 60 | 1009.9 |
| 20260503051522 | 53 | 322 | 1.0 | 0.0 | 0.00 | 0.04 | 0.00 | 61 | 1009.8 |
| 20260503051023 | 53 | 333 | 0.0 | 0.0 | 0.00 | 0.04 | 0.00 | 61 | 1009.8 |
| 20260503050521 | 53 | 333 | 0.0 | 0.0 | 0.00 | 0.04 | 0.00 | 62 | 1009.9 |
| 20260503050022 | 53 | 339 | 1.0 | 0.0 | 0.00 | 0.04 | 0.00 | 62 | 1009.9 |
| 20260503045523 | 53 | 356 | 0.0 | 0.0 | 0.00 | 0.04 | 0.00 | 63 | 1010.0 |
| 20260503045051 | 53 | 356 | 0.0 | 0.0 | 0.00 | 0.04 | 0.00 | 63 | 1010.0 |
| 20260503045020 | 53 | 356 | 0.0 | 0.0 | 0.00 | 0.04 | 0.00 | 63 | 1010.0 |
| 20260503044521 | 53 | 314 | 0.0 | 0.0 | 0.00 | 0.07 | 0.04 | 63 | 1010.2 |
| 20260503044022 | 53 | 307 | 0.0 | 0.0 | 0.00 | 0.07 | 0.04 | 63 | 1010.3 |
| 20260503043519 | 53 | 283 | 1.0 | 0.0 | 0.00 | 0.07 | 0.04 | 63 | 1010.3 |
| 20260503043020 | 53 | 267 | 0.0 | 0.0 | 0.00 | 0.07 | 0.04 | 64 | 1010.4 |
| 20260503042520 | 53 | 267 | 1.0 | 0.0 | 0.00 | 0.07 | 0.04 | 64 | 1010.5 |
| 20260503042300 | 53 | 345 | 0.0 | 0.0 | 0.00 | 0.07 | 0.04 | 64 | 1010.6 |
| 20260503042017 | 53 | 345 | 0.0 | 0.0 | 0.00 | 0.07 | 0.04 | 64 | 1010.6 |
| 20260503041518 | 54 | 354 | 0.0 | 0.0 | 0.00 | 0.07 | 0.04 | 64 | 1010.5 |
| 20260503041019 | 53 | 354 | 0.0 | 0.0 | 0.00 | 0.07 | 0.04 | 65 | 1010.5 |
| 20260503040517 | 53 | 354 | 0.0 | 0.0 | 0.00 | 0.07 | 0.04 | 65 | 1010.5 |
| 20260503040018 | 54 | 354 | 0.0 | 0.0 | 0.00 | 0.07 | 0.04 | 65 | 1010.5 |
| 20260503035519 | 54 | 354 | 0.0 | 0.0 | 0.00 | 0.07 | 0.04 | 65 | 1010.3 |
| 20260503035016 | 54 | 354 | 0.0 | 0.0 | 0.00 | 0.07 | 0.04 | 66 | 1010.3 |
| 20260503034517 | 54 | 354 | 0.0 | 0.0 | 0.00 | 0.07 | 0.04 | 66 | 1010.3 |
| 20260503034018 | 54 | 353 | 1.0 | 1.0 | 0.00 | 0.07 | 0.04 | 66 | 1010.3 |
| 20260503033516 | 54 | 239 | 0.0 | 0.0 | 0.00 | 0.07 | 0.04 | 66 | 1010.4 |
| 20260503033018 | 54 | 239 | 0.0 | 0.0 | 0.00 | 0.07 | 0.04 | 67 | 1010.4 |
| 20260503032016 | 54 | 239 | 0.0 | 0.0 | 0.00 | 0.07 | 0.04 | 68 | 1010.4 |
| 20260503031517 | 54 | 239 | 0.0 | 0.0 | 0.00 | 0.07 | 0.04 | 69 | 1010.4 |
| 20260503031018 | 54 | 239 | 0.0 | 0.0 | 0.00 | 0.07 | 0.04 | 70 | 1010.5 |
| 20260503030514 | 54 | 239 | 1.0 | 0.0 | 0.00 | 0.07 | 0.04 | 71 | 1010.4 |
| 20260503030015 | 54 | 329 | 0.0 | 0.0 | 0.00 | 0.07 | 0.04 | 72 | 1010.4 |
| 20260503025517 | 54 | 302 | 0.0 | 0.0 | 0.00 | 0.07 | 0.04 | 75 | 1010.4 |
| 20260503025014 | 54 | 302 | 0.0 | 0.0 | 0.00 | 0.07 | 0.04 | 77 | 1010.4 |
| 20260503024516 | 54 | 301 | 0.0 | 1.0 | 0.00 | 0.07 | 0.04 | 79 | 1010.2 |
| 20260503024017 | 54 | 287 | 0.0 | 0.0 | 0.00 | 0.07 | 0.04 | 81 | 1010.3 |
| 20260503023521 | 54 | 267 | 0.0 | 0.0 | 0.00 | 0.07 | 0.04 | 83 | 1010.3 |
| 20260503023015 | 54 | 267 | 0.0 | 0.0 | 0.00 | 0.07 | 0.04 | 83 | 1010.3 |
| 20260503022515 | 54 | 267 | 0.0 | 0.0 | 0.00 | 0.07 | 0.04 | 83 | 1010.4 |
| 20260503022012 | 55 | 267 | 0.0 | 0.0 | 0.00 | 0.07 | 0.04 | 83 | 1010.5 |
| 20260503021513 | 55 | 267 | 0.0 | 0.0 | 0.00 | 0.07 | 0.04 | 83 | 1010.6 |
| 20260503021013 | 55 | 267 | 0.0 | 0.0 | 0.00 | 0.07 | 0.04 | 83 | 1010.7 |
| 20260503020511 | 55 | 267 | 0.0 | 0.0 | 0.00 | 0.07 | 0.04 | 82 | 1010.6 |
| 20260503020012 | 55 | 267 | 0.0 | 0.0 | 0.00 | 0.07 | 0.04 | 82 | 1010.7 |
| 20260503015513 | 55 | 267 | 0.0 | 0.0 | 0.00 | 0.07 | 0.04 | 82 | 1010.5 |
| 20260503015011 | 55 | 267 | 0.0 | 0.0 | 0.00 | 0.07 | 0.04 | 81 | 1010.6 |
| 20260503014512 | 55 | 267 | 0.0 | 0.0 | 0.00 | 0.07 | 0.04 | 81 | 1010.7 |
| 20260503014013 | 55 | 267 | 0.0 | 0.0 | 0.00 | 0.07 | 0.04 | 81 | 1010.7 |
| 20260503013510 | 55 | 267 | 0.0 | 0.0 | 0.00 | 0.07 | 0.04 | 80 | 1010.8 |
| 20260503013011 | 55 | 267 | 0.0 | 0.0 | 0.00 | 0.07 | 0.04 | 80 | 1010.8 |
| 20260503012512 | 55 | 267 | 0.0 | 0.0 | 0.00 | 0.07 | 0.04 | 79 | 1010.7 |
| 20260503012009 | 56 | 267 | 0.0 | 0.0 | 0.00 | 0.07 | 0.04 | 79 | 1010.7 |
| 20260503011056 | 56 | 267 | 0.0 | 0.0 | 0.00 | 0.07 | 0.04 | 78 | 1010.6 |
| 20260503011011 | 56 | 267 | 0.0 | 0.0 | 0.00 | 0.07 | 0.04 | 78 | 1010.6 |
| 20260503010506 | 56 | 174 | 0.0 | 0.0 | 0.00 | 0.07 | 0.04 | 78 | 1010.7 |
| 20260503010301 | 56 | 174 | 0.0 | 0.0 | 0.00 | 0.07 | 0.04 | 78 | 1010.5 |
| 20260503010007 | 56 | 174 | 0.0 | 0.0 | 0.00 | 0.07 | 0.04 | 78 | 1010.5 |
| 20260503005004 | 56 | 174 | 0.0 | 0.0 | 0.00 | 0.07 | 0.04 | 77 | 1010.3 |
| 20260503004505 | 56 | 174 | 0.0 | 0.0 | 0.00 | 0.07 | 0.04 | 77 | 1010.3 |
| 20260503004006 | 57 | 270 | 0.0 | 0.0 | 0.00 | 0.07 | 0.04 | 77 | 1010.3 |
| 20260503003503 | 57 | 284 | 0.0 | 0.0 | 0.00 | 0.07 | 0.04 | 76 | 1010.3 |
| 20260503003004 | 57 | 179 | 0.0 | 0.0 | 0.00 | 0.07 | 0.04 | 76 | 1010.2 |
| 20260503002505 | 57 | 179 | 0.0 | 0.0 | 0.00 | 0.07 | 0.04 | 76 | 1010.1 |
| 20260503002048 | 57 | 179 | 0.0 | 0.0 | 0.00 | 0.07 | 0.04 | 75 | 1010.1 |
| 20260503002000 | 57 | 179 | 0.0 | 0.0 | 0.00 | 0.07 | 0.04 | 75 | 1010.1 |
| 20260503001500 | 57 | 179 | 0.0 | 0.0 | 0.00 | 0.07 | 0.04 | 75 | 1010.2 |
| 20260503001050 | 57 | 179 | 0.0 | 0.0 | 0.00 | 0.07 | 0.04 | 74 | 1010.1 |
| 20260503001001 | 57 | 179 | 0.0 | 0.0 | 0.00 | 0.07 | 0.04 | 74 | 1010.1 |
| 20260503000658 | 58 | 179 | 0.0 | 0.0 | 0.00 | 0.07 | 0.04 | 74 | 1010.1 |
| 20260503000456 | 58 | 179 | 0.0 | 0.0 | 0.00 | 0.07 | 0.04 | 74 | 1010.1 |
| 20260502235958 | 58 | 179 | 0.0 | 0.0 | 0.00 | 0.07 | 0.04 | 74 | 1010.2 |
| 20260502235458 | 58 | 179 | 0.0 | 0.0 | 0.00 | 0.07 | 0.04 | 73 | 1010.3 |
| 20260502234954 | 58 | 179 | 0.0 | 0.0 | 0.00 | 0.07 | 0.04 | 73 | 1010.3 |
| 20260502234455 | 58 | 179 | 0.0 | 0.0 | 0.00 | 0.07 | 0.04 | 73 | 1010.2 |
| 20260502233955 | 58 | 176 | 1.0 | 0.0 | 0.00 | 0.07 | 0.04 | 72 | 1010.3 |
| 20260502233453 | 58 | 278 | 0.0 | 1.0 | 0.00 | 0.07 | 0.04 | 72 | 1010.3 |
| 20260502232954 | 59 | 321 | 0.0 | 0.0 | 0.00 | 0.07 | 0.04 | 71 | 1010.3 |
| 20260502232454 | 59 | 321 | 0.0 | 0.0 | 0.00 | 0.07 | 0.04 | 71 | 1010.3 |